IMP707 GCLA-LPHR

Flight info

Callsign IMP707
Flight time 2h 12m
Altitude 36000
Route 2900N01800W 3100N02000W 3200N02100W 3300N02200W 3400N02300W ETROX H104 VSM H101 RODIL
Aircraft MD82/M-VGDW/C

Departure

Time 2026-04-22 20:01
Airport La Palma Airport (GCLA)

Arrival

Time 2026-04-22 22:14
Airport Horta Airport (LPHR)
Time Latitude Longitude Altitude Speed Heading
2026-04-22 19:42 28.62395 -17.75364 102 ft 0 kts 89°
2026-04-22 19:54 28.62395 -17.75363 102 ft 0 kts 89°
2026-04-22 19:55 28.62395 -17.75371 102 ft 2 kts 89°
2026-04-22 19:55 28.62395 -17.75389 102 ft 3 kts 89°
2026-04-22 19:55 28.62394 -17.75409 102 ft 3 kts 89°
2026-04-22 19:55 28.62394 -17.75433 102 ft 3 kts 89°
2026-04-22 19:56 28.62394 -17.75455 102 ft 0 kts 89°
2026-04-22 19:56 28.62393 -17.75453 102 ft 1 kts 98°
2026-04-22 19:56 28.62386 -17.75449 102 ft 2 kts 158°
2026-04-22 19:56 28.62346 -17.75447 102 ft 11 kts 178°
2026-04-22 19:57 28.62237 -17.75444 102 ft 17 kts 179°
2026-04-22 19:57 28.62121 -17.75442 102 ft 15 kts 180°
2026-04-22 19:57 28.62087 -17.75504 102 ft 9 kts 260°
2026-04-22 19:57 28.62040 -17.75550 102 ft 11 kts 188°
2026-04-22 19:58 28.61965 -17.75549 102 ft 10 kts 178°
2026-04-22 19:58 28.61919 -17.75547 102 ft 0 kts 178°
2026-04-22 19:58 28.61904 -17.75546 102 ft 7 kts 178°
2026-04-22 19:59 28.61820 -17.75543 102 ft 15 kts 176°
2026-04-22 20:00 28.61705 -17.75543 102 ft 0 kts 356°
2026-04-22 20:00 28.61724 -17.75544 102 ft 20 kts 357°
2026-04-22 20:01 28.62098 -17.75552 102 ft 87 kts 359°
2026-04-22 20:01 28.62909 -17.75569 104 ft 144 kts 359°
2026-04-22 20:01 28.63998 -17.75600 418 ft 163 kts 358°
2026-04-22 20:01 28.65152 -17.75644 1076 ft 172 kts 359°
2026-04-22 20:02 28.66403 -17.75699 1654 ft 188 kts 357°
2026-04-22 20:02 28.67720 -17.75741 2447 ft 187 kts 360°
2026-04-22 20:02 28.68969 -17.75787 3219 ft 178 kts 359°
2026-04-22 20:02 28.70240 -17.75830 3609 ft 190 kts 355°
2026-04-22 20:03 28.71621 -17.75880 3909 ft 207 kts 355°
2026-04-22 20:03 28.73108 -17.75939 4296 ft 220 kts 355°
2026-04-22 20:03 28.74687 -17.76005 4756 ft 229 kts 354°
2026-04-22 20:03 28.76306 -17.76076 5242 ft 236 kts 353°
2026-04-22 20:04 28.77965 -17.76151 5742 ft 241 kts 353°
2026-04-22 20:04 28.79675 -17.76233 6117 ft 254 kts 353°
2026-04-22 20:04 28.81472 -17.76342 6505 ft 262 kts 349°
2026-04-22 20:04 28.83161 -17.77032 6935 ft 258 kts 322°
2026-04-22 20:05 28.84487 -17.78360 7500 ft 253 kts 307°
2026-04-22 20:05 28.85462 -17.80013 7990 ft 251 kts 295°
2026-04-22 20:05 28.86235 -17.81788 8511 ft 251 kts 291°
2026-04-22 20:05 28.86949 -17.83613 9003 ft 253 kts 290°
2026-04-22 20:06 28.87705 -17.85423 9503 ft 255 kts 295°
2026-04-22 20:06 28.88692 -17.87123 9985 ft 259 kts 302°
2026-04-22 20:06 28.89863 -17.88773 10269 ft 272 kts 305°
2026-04-22 20:06 28.91164 -17.90411 10439 ft 287 kts 307°
2026-04-22 20:07 28.92586 -17.92080 10620 ft 300 kts 309°
2026-04-22 20:07 28.94103 -17.93779 10855 ft 310 kts 310°
2026-04-22 20:07 28.95668 -17.95481 11311 ft 312 kts 311°
2026-04-22 20:07 28.97259 -17.97170 11703 ft 315 kts 312°
2026-04-22 20:08 28.98876 -17.98872 12128 ft 317 kts 311°
2026-04-22 20:08 29.00501 -18.00583 12537 ft 319 kts 312°
2026-04-22 20:08 29.02170 -18.02263 12921 ft 322 kts 314°
2026-04-22 20:08 29.03880 -18.03928 13330 ft 324 kts 314°
2026-04-22 20:09 29.05613 -18.05585 13720 ft 327 kts 314°
2026-04-22 20:09 29.07357 -18.07257 14113 ft 328 kts 314°
2026-04-22 20:09 29.09108 -18.08937 14422 ft 333 kts 314°
2026-04-22 20:09 29.10909 -18.10667 14783 ft 334 kts 314°
2026-04-22 20:10 29.12694 -18.12378 15134 ft 337 kts 314°
2026-04-22 20:10 29.14481 -18.14116 15509 ft 338 kts 313°
2026-04-22 20:10 29.16269 -18.15865 15869 ft 340 kts 313°
2026-04-22 20:10 29.18063 -18.17624 16227 ft 341 kts 313°
2026-04-22 20:11 29.19869 -18.19391 16558 ft 343 kts 313°
2026-04-22 20:11 29.21689 -18.21168 16905 ft 344 kts 313°
2026-04-22 20:11 29.23510 -18.22940 17236 ft 346 kts 313°
2026-04-22 20:11 29.25349 -18.24729 17561 ft 348 kts 313°
2026-04-22 20:12 29.27183 -18.26534 17884 ft 349 kts 312°
2026-04-22 20:12 29.29021 -18.28359 18194 ft 351 kts 312°
2026-04-22 20:12 29.30265 -18.29589 18410 ft 351 kts 312°
2026-04-22 20:12 29.32724 -18.32017 18787 ft 354 kts 312°
2026-04-22 20:13 29.34592 -18.33860 19064 ft 356 kts 312°
2026-04-22 20:13 29.36500 -18.35738 19376 ft 357 kts 312°
2026-04-22 20:13 29.38382 -18.37591 19663 ft 359 kts 312°
2026-04-22 20:13 29.40279 -18.39460 19942 ft 361 kts 312°
2026-04-22 20:14 29.42181 -18.41331 20276 ft 360 kts 312°
2026-04-22 20:14 29.44085 -18.43200 20505 ft 363 kts 312°
2026-04-22 20:14 29.46007 -18.45084 20790 ft 364 kts 312°
2026-04-22 20:14 29.47932 -18.46967 21088 ft 364 kts 312°
2026-04-22 20:15 29.49863 -18.48851 21343 ft 366 kts 312°
2026-04-22 20:15 29.51809 -18.50754 21617 ft 367 kts 311°
2026-04-22 20:15 29.53740 -18.52666 21884 ft 368 kts 311°
2026-04-22 20:15 29.55676 -18.54599 22129 ft 370 kts 311°
2026-04-22 20:16 29.57614 -18.56536 22427 ft 370 kts 311°
2026-04-22 20:16 29.59587 -18.58500 22634 ft 372 kts 311°
2026-04-22 20:16 29.61543 -18.60441 22885 ft 373 kts 311°
2026-04-22 20:16 29.63514 -18.62381 23100 ft 375 kts 311°
2026-04-22 20:17 29.65490 -18.64328 23378 ft 374 kts 311°
2026-04-22 20:17 29.67460 -18.66277 23578 ft 376 kts 311°
2026-04-22 20:17 29.69443 -18.68242 23798 ft 377 kts 311°
2026-04-22 20:17 29.71431 -18.70212 24016 ft 378 kts 311°
2026-04-22 20:18 29.73425 -18.72186 24221 ft 379 kts 311°
2026-04-22 20:18 29.75419 -18.74157 24444 ft 379 kts 311°
2026-04-22 20:18 29.77418 -18.76137 24637 ft 380 kts 310°
2026-04-22 20:18 29.79414 -18.78131 24819 ft 381 kts 310°
2026-04-22 20:19 29.81408 -18.80124 25027 ft 381 kts 310°
2026-04-22 20:19 29.83415 -18.82123 25220 ft 382 kts 310°
2026-04-22 20:19 29.85427 -18.84115 25463 ft 382 kts 309°
2026-04-22 20:19 29.87436 -18.86116 25628 ft 383 kts 309°
2026-04-22 20:20 29.89469 -18.88151 25811 ft 383 kts 309°
2026-04-22 20:20 29.91484 -18.90164 25999 ft 384 kts 309°
2026-04-22 20:20 29.93507 -18.92177 26160 ft 385 kts 309°
2026-04-22 20:20 29.95529 -18.94187 26381 ft 384 kts 308°
2026-04-22 20:21 29.97538 -18.96204 26509 ft 385 kts 308°
2026-04-22 20:21 29.99557 -18.98235 26663 ft 386 kts 308°
2026-04-22 20:21 30.01583 -19.00274 26941 ft 387 kts 308°
2026-04-22 20:21 30.03611 -19.02301 27318 ft 386 kts 308°
2026-04-22 20:22 30.05646 -19.04324 27606 ft 387 kts 307°
2026-04-22 20:22 30.07685 -19.06365 27864 ft 389 kts 307°
2026-04-22 20:22 30.09725 -19.08411 28165 ft 389 kts 307°
2026-04-22 20:22 30.11105 -19.09788 28391 ft 388 kts 307°
2026-04-22 20:23 30.13142 -19.11831 28608 ft 390 kts 306°
2026-04-22 20:23 30.15182 -19.13887 28937 ft 388 kts 306°
2026-04-22 20:23 30.17221 -19.15938 29161 ft 390 kts 306°
2026-04-22 20:23 30.19270 -19.17990 29401 ft 391 kts 306°
2026-04-22 20:24 30.21326 -19.20039 29720 ft 389 kts 305°
2026-04-22 20:24 30.23373 -19.22093 29902 ft 391 kts 305°
2026-04-22 20:24 30.25425 -19.24162 30105 ft 392 kts 305°
2026-04-22 20:24 30.27476 -19.26236 30291 ft 393 kts 305°
2026-04-22 20:25 30.29564 -19.28343 30523 ft 393 kts 304°
2026-04-22 20:25 30.31624 -19.30411 30792 ft 392 kts 304°
2026-04-22 20:25 30.33692 -19.32482 30923 ft 394 kts 304°
2026-04-22 20:25 30.35756 -19.34563 31088 ft 396 kts 304°
2026-04-22 20:26 30.37837 -19.36655 31234 ft 397 kts 305°
2026-04-22 20:26 30.39914 -19.38747 31446 ft 396 kts 305°
2026-04-22 20:26 30.41996 -19.40855 31530 ft 399 kts 305°
2026-04-22 20:26 30.44073 -19.42977 31665 ft 400 kts 305°
2026-04-22 20:27 30.46162 -19.45110 31787 ft 402 kts 305°
2026-04-22 20:27 30.48267 -19.47245 31912 ft 403 kts 306°
2026-04-22 20:27 30.50379 -19.49386 32019 ft 405 kts 306°
2026-04-22 20:27 30.52491 -19.51531 32150 ft 405 kts 306°
2026-04-22 20:28 30.54609 -19.53690 32262 ft 406 kts 306°
2026-04-22 20:28 30.56773 -19.55880 32365 ft 408 kts 306°
2026-04-22 20:28 30.58917 -19.58033 32477 ft 409 kts 307°
2026-04-22 20:28 30.61066 -19.60190 32641 ft 409 kts 307°
2026-04-22 20:29 30.63209 -19.62347 32706 ft 410 kts 307°
2026-04-22 20:29 30.65357 -19.64527 32813 ft 410 kts 307°
2026-04-22 20:29 30.67504 -19.66716 32890 ft 412 kts 307°
2026-04-22 20:30 30.71804 -19.71116 33036 ft 414 kts 307°
2026-04-22 20:30 30.76122 -19.75572 33151 ft 417 kts 307°
2026-04-22 20:31 30.80503 -19.80042 33238 ft 422 kts 308°
2026-04-22 20:31 30.84926 -19.84543 33439 ft 423 kts 308°
2026-04-22 20:32 30.89392 -19.89093 33578 ft 425 kts 308°
2026-04-22 20:32 30.93840 -19.93632 33781 ft 425 kts 309°
2026-04-22 20:33 30.98282 -19.98209 33844 ft 428 kts 309°
2026-04-22 20:33 31.02752 -20.02814 33964 ft 431 kts 309°
2026-04-22 20:34 31.07290 -20.07369 34093 ft 433 kts 310°
2026-04-22 20:34 31.11889 -20.11898 34219 ft 434 kts 310°
2026-04-22 20:35 31.16544 -20.16453 34333 ft 435 kts 311°
2026-04-22 20:35 31.21169 -20.21005 34437 ft 436 kts 310°
2026-04-22 20:36 31.25796 -20.25577 34527 ft 437 kts 311°
2026-04-22 20:36 31.30444 -20.30152 34619 ft 437 kts 311°
2026-04-22 20:37 31.35075 -20.34753 34694 ft 439 kts 311°
2026-04-22 20:37 31.39710 -20.39369 34788 ft 439 kts 311°
2026-04-22 20:38 31.44367 -20.43996 34864 ft 440 kts 311°
2026-04-22 20:39 31.53804 -20.53414 34982 ft 441 kts 311°
2026-04-22 20:39 31.58461 -20.58085 35065 ft 441 kts 311°
2026-04-22 20:40 31.63127 -20.62756 35107 ft 442 kts 311°
2026-04-22 20:40 31.67789 -20.67449 35176 ft 442 kts 311°
2026-04-22 20:41 31.72467 -20.72132 35218 ft 443 kts 311°
2026-04-22 20:41 31.77165 -20.76879 35288 ft 443 kts 311°
2026-04-22 20:42 31.81842 -20.81574 35362 ft 443 kts 311°
2026-04-22 20:42 31.86499 -20.86301 35401 ft 443 kts 311°
2026-04-22 20:43 31.91170 -20.91021 35436 ft 444 kts 311°
2026-04-22 20:43 31.95846 -20.95746 35473 ft 444 kts 311°
2026-04-22 20:44 32.00531 -21.00488 35527 ft 444 kts 311°
2026-04-22 20:44 32.02860 -21.02844 35756 ft 439 kts 311°
2026-04-22 20:44 32.05161 -21.05164 35931 ft 436 kts 311°
2026-04-22 20:45 32.09826 -21.09800 35986 ft 437 kts 312°
2026-04-22 20:45 32.14485 -21.14400 35986 ft 438 kts 312°
2026-04-22 20:46 32.21485 -21.21311 35986 ft 438 kts 312°
2026-04-22 20:46 32.26144 -21.25920 35986 ft 438 kts 312°
2026-04-22 20:47 32.30801 -21.30525 35986 ft 438 kts 312°
2026-04-22 20:47 32.35465 -21.35139 35986 ft 438 kts 312°
2026-04-22 20:48 32.40151 -21.39790 35985 ft 438 kts 312°
2026-04-22 20:48 32.44806 -21.44423 35985 ft 438 kts 312°
2026-04-22 20:49 32.49459 -21.49061 35985 ft 438 kts 312°
2026-04-22 20:49 32.54106 -21.53698 35985 ft 438 kts 312°
2026-04-22 20:50 32.58750 -21.58338 35985 ft 438 kts 312°
2026-04-22 20:50 32.63398 -21.62987 35985 ft 437 kts 312°
2026-04-22 20:51 32.68064 -21.67674 35985 ft 437 kts 312°
2026-04-22 20:51 32.72694 -21.72345 35985 ft 437 kts 312°
2026-04-22 20:52 32.77321 -21.77013 35985 ft 437 kts 312°
2026-04-22 20:52 32.81951 -21.81691 35985 ft 437 kts 312°
2026-04-22 20:53 32.86577 -21.86363 35985 ft 437 kts 312°
2026-04-22 20:53 32.91197 -21.91046 35985 ft 437 kts 312°
2026-04-22 20:54 32.95821 -21.95734 35985 ft 437 kts 312°
2026-04-22 20:54 33.00445 -22.00427 35985 ft 437 kts 312°
2026-04-22 20:55 33.05107 -22.05136 35985 ft 438 kts 312°
2026-04-22 20:55 33.09791 -22.09768 35985 ft 438 kts 313°
2026-04-22 20:56 33.14491 -22.14374 35985 ft 438 kts 313°
2026-04-22 20:56 33.19200 -22.18982 35985 ft 438 kts 313°
2026-04-22 20:57 33.23885 -22.23609 35984 ft 438 kts 312°
2026-04-22 20:57 33.28592 -22.28280 35978 ft 438 kts 313°
2026-04-22 20:58 33.33275 -22.32924 35979 ft 437 kts 312°
2026-04-22 20:58 33.37937 -22.37590 35984 ft 439 kts 313°
2026-04-22 20:59 33.42641 -22.42250 35965 ft 439 kts 313°
2026-04-22 20:59 33.47305 -22.46914 35927 ft 437 kts 313°
2026-04-22 21:00 33.51948 -22.51587 35917 ft 437 kts 314°
2026-04-22 21:00 33.56597 -22.56220 35861 ft 434 kts 315°
2026-04-22 21:01 33.61246 -22.60871 35790 ft 432 kts 316°
2026-04-22 21:01 33.65850 -22.65477 35752 ft 432 kts 315°
2026-04-22 21:02 33.70450 -22.70133 35775 ft 433 kts 315°
2026-04-22 21:02 33.75046 -22.74806 35780 ft 433 kts 315°
2026-04-22 21:03 33.79646 -22.79450 35723 ft 432 kts 316°
2026-04-22 21:03 33.84250 -22.84077 35660 ft 432 kts 316°
2026-04-22 21:04 33.88892 -22.88735 35660 ft 432 kts 316°
2026-04-22 21:04 33.93510 -22.93366 35661 ft 433 kts 316°
2026-04-22 21:05 33.98100 -22.98028 35650 ft 432 kts 317°
2026-04-22 21:05 34.03302 -23.01747 35652 ft 440 kts 332°
2026-04-22 21:06 34.09060 -23.04307 35652 ft 444 kts 339°
2026-04-22 21:06 34.14991 -23.06395 35651 ft 444 kts 340°
2026-04-22 21:07 34.20897 -23.08539 35651 ft 444 kts 338°
2026-04-22 21:07 34.26780 -23.10909 35651 ft 443 kts 336°
2026-04-22 21:08 34.32568 -23.13407 35652 ft 443 kts 336°
2026-04-22 21:08 34.38367 -23.15895 35652 ft 443 kts 336°
2026-04-22 21:09 34.44163 -23.18368 35651 ft 443 kts 336°
2026-04-22 21:09 34.49986 -23.20794 35653 ft 443 kts 337°
2026-04-22 21:10 34.55801 -23.23223 35653 ft 443 kts 336°
2026-04-22 21:10 34.61617 -23.25669 35653 ft 443 kts 337°
2026-04-22 21:11 34.66486 -23.27713 35654 ft 443 kts 336°
2026-04-22 21:11 34.72301 -23.30164 35655 ft 443 kts 337°
2026-04-22 21:12 34.78107 -23.32624 35654 ft 443 kts 337°
2026-04-22 21:12 34.83925 -23.35072 35655 ft 443 kts 337°
2026-04-22 21:13 34.89774 -23.37537 35655 ft 443 kts 336°
2026-04-22 21:13 34.95590 -23.39993 35655 ft 443 kts 336°
2026-04-22 21:14 35.01403 -23.42455 35656 ft 443 kts 336°
2026-04-22 21:14 35.07211 -23.44922 35658 ft 443 kts 336°
2026-04-22 21:15 35.13014 -23.47393 35658 ft 443 kts 337°
2026-04-22 21:15 35.18820 -23.49875 35659 ft 443 kts 336°
2026-04-22 21:16 35.24679 -23.52356 35659 ft 443 kts 336°
2026-04-22 21:16 35.30483 -23.54835 35659 ft 443 kts 337°
2026-04-22 21:17 35.36289 -23.57313 35660 ft 443 kts 336°
2026-04-22 21:17 35.42108 -23.59802 35660 ft 443 kts 336°
2026-04-22 21:18 35.47917 -23.62303 35660 ft 443 kts 336°
2026-04-22 21:18 35.53731 -23.64795 35661 ft 443 kts 336°
2026-04-22 21:19 35.59542 -23.67307 35662 ft 443 kts 337°
2026-04-22 21:19 35.65396 -23.69808 35663 ft 443 kts 336°
2026-04-22 21:20 35.71211 -23.72317 35665 ft 443 kts 337°
2026-04-22 21:20 35.77020 -23.74820 35666 ft 443 kts 336°
2026-04-22 21:21 35.82834 -23.77334 35665 ft 443 kts 336°
2026-04-22 21:21 35.88638 -23.79857 35666 ft 443 kts 336°
2026-04-22 21:22 35.94445 -23.82375 35667 ft 443 kts 336°
2026-04-22 21:22 36.00295 -23.84917 35666 ft 443 kts 337°
2026-04-22 21:23 36.06105 -23.87430 35667 ft 443 kts 336°
2026-04-22 21:23 36.11916 -23.89959 35669 ft 443 kts 336°
2026-04-22 21:24 36.17726 -23.92493 35670 ft 443 kts 336°
2026-04-22 21:24 36.23531 -23.95026 35672 ft 443 kts 336°
2026-04-22 21:25 36.29339 -23.97575 35674 ft 444 kts 336°
2026-04-22 21:25 36.35158 -24.00120 35673 ft 444 kts 336°
2026-04-22 21:26 36.37945 -24.01681 35670 ft 437 kts 323°
2026-04-22 21:26 36.40297 -24.04068 35678 ft 431 kts 312°
2026-04-22 21:26 36.44176 -24.09680 35678 ft 427 kts 302°
2026-04-22 21:27 36.47319 -24.15902 35680 ft 425 kts 297°
2026-04-22 21:27 36.50178 -24.22300 35678 ft 425 kts 296°
2026-04-22 21:28 36.53119 -24.28661 35678 ft 425 kts 298°
2026-04-22 21:28 36.56204 -24.34931 35677 ft 426 kts 299°
2026-04-22 21:29 36.59361 -24.41160 35685 ft 426 kts 299°
2026-04-22 21:29 36.62526 -24.47443 35686 ft 427 kts 299°
2026-04-22 21:30 36.65648 -24.53712 35686 ft 426 kts 298°
2026-04-22 21:30 36.68714 -24.60007 35684 ft 426 kts 298°
2026-04-22 21:31 36.71797 -24.66297 35690 ft 426 kts 298°
2026-04-22 21:31 36.74875 -24.72594 35693 ft 426 kts 298°
2026-04-22 21:32 36.77954 -24.78886 35694 ft 425 kts 298°
2026-04-22 21:32 36.81048 -24.85215 35696 ft 425 kts 298°
2026-04-22 21:33 36.84012 -24.91294 35699 ft 426 kts 298°
2026-04-22 21:33 36.87068 -24.97606 35699 ft 425 kts 298°
2026-04-22 21:34 36.90103 -25.03932 35698 ft 425 kts 298°
2026-04-22 21:34 36.93159 -25.10250 35701 ft 426 kts 298°
2026-04-22 21:35 36.96244 -25.16556 35702 ft 426 kts 298°
2026-04-22 21:35 36.99242 -25.22922 35703 ft 425 kts 297°
2026-04-22 21:36 37.02260 -25.29331 35703 ft 425 kts 297°
2026-04-22 21:36 37.05274 -25.35687 35698 ft 425 kts 298°
2026-04-22 21:37 37.08281 -25.42054 35695 ft 425 kts 297°
2026-04-22 21:37 37.11277 -25.48422 35688 ft 426 kts 297°
2026-04-22 21:38 37.14281 -25.54804 35683 ft 426 kts 297°
2026-04-22 21:38 37.17460 -25.61577 35663 ft 425 kts 297°
2026-04-22 21:39 37.20445 -25.67954 35668 ft 425 kts 297°
2026-04-22 21:39 37.23426 -25.74351 35672 ft 426 kts 297°
2026-04-22 21:40 37.26422 -25.80797 35663 ft 426 kts 297°
2026-04-22 21:40 37.29400 -25.87214 35637 ft 425 kts 297°
2026-04-22 21:41 37.32365 -25.93623 35638 ft 425 kts 297°
2026-04-22 21:41 37.35330 -26.00044 35639 ft 425 kts 297°
2026-04-22 21:42 37.38291 -26.06470 35634 ft 425 kts 297°
2026-04-22 21:42 37.41245 -26.12899 35632 ft 425 kts 297°
2026-04-22 21:43 37.44215 -26.19368 35636 ft 425 kts 297°
2026-04-22 21:43 37.47166 -26.25806 35628 ft 425 kts 297°
2026-04-22 21:44 37.50125 -26.32237 35624 ft 425 kts 297°
2026-04-22 21:44 37.53074 -26.38670 35625 ft 425 kts 297°
2026-04-22 21:45 37.56023 -26.45105 35626 ft 425 kts 297°
2026-04-22 21:45 37.58969 -26.51551 35623 ft 425 kts 297°
2026-04-22 21:46 37.61926 -26.57994 35621 ft 425 kts 297°
2026-04-22 21:46 37.64383 -26.63400 35617 ft 424 kts 297°
2026-04-22 21:47 37.67293 -26.69834 35592 ft 416 kts 297°
2026-04-22 21:47 37.68709 -26.72965 35312 ft 406 kts 297°
2026-04-22 21:47 37.70096 -26.76034 34864 ft 402 kts 297°
2026-04-22 21:48 37.71478 -26.79091 34292 ft 400 kts 297°
2026-04-22 21:48 37.72851 -26.82125 33707 ft 398 kts 297°
2026-04-22 21:48 37.74222 -26.85148 33149 ft 396 kts 297°
2026-04-22 21:48 37.75583 -26.88191 32624 ft 392 kts 296°
2026-04-22 21:49 37.76910 -26.91179 32086 ft 389 kts 296°
2026-04-22 21:49 37.78226 -26.94146 31537 ft 386 kts 296°
2026-04-22 21:49 37.79545 -26.97080 30988 ft 383 kts 296°
2026-04-22 21:49 37.80864 -26.99982 30440 ft 379 kts 297°
2026-04-22 21:50 37.82160 -27.02856 29913 ft 375 kts 296°
2026-04-22 21:50 37.83437 -27.05709 29402 ft 371 kts 296°
2026-04-22 21:50 37.84695 -27.08525 28882 ft 367 kts 296°
2026-04-22 21:50 37.85945 -27.11319 28374 ft 363 kts 296°
2026-04-22 21:51 37.87179 -27.14069 27880 ft 358 kts 296°
2026-04-22 21:51 37.88401 -27.16792 27400 ft 354 kts 295°
2026-04-22 21:51 37.89594 -27.19490 26924 ft 349 kts 295°
2026-04-22 21:52 37.91942 -27.24819 25995 ft 340 kts 295°
2026-04-22 21:52 37.93089 -27.27416 25545 ft 336 kts 295°
2026-04-22 21:52 37.94224 -27.29979 25094 ft 332 kts 295°
2026-04-22 21:52 37.95346 -27.32505 24645 ft 328 kts 295°
2026-04-22 21:53 37.96459 -27.35010 24194 ft 325 kts 295°
2026-04-22 21:53 37.97560 -27.37485 23745 ft 321 kts 295°
2026-04-22 21:53 37.98649 -27.39926 23313 ft 317 kts 295°
2026-04-22 21:53 37.99731 -27.42342 22886 ft 314 kts 295°
2026-04-22 21:54 38.00799 -27.44729 22459 ft 310 kts 295°
2026-04-22 21:54 38.01834 -27.47096 22034 ft 306 kts 294°
2026-04-22 21:54 38.02885 -27.49528 21613 ft 323 kts 294°
2026-04-22 21:54 38.03977 -27.52028 21190 ft 324 kts 295°
2026-04-22 21:55 38.05070 -27.54502 20759 ft 320 kts 295°
2026-04-22 21:55 38.06172 -27.56982 20327 ft 318 kts 295°
2026-04-22 21:55 38.07260 -27.59408 19902 ft 317 kts 295°
2026-04-22 21:55 38.08511 -27.61722 19470 ft 319 kts 302°
2026-04-22 21:56 38.09966 -27.63852 19085 ft 320 kts 307°
2026-04-22 21:56 38.11528 -27.65871 18693 ft 321 kts 309°
2026-04-22 21:56 38.13132 -27.67830 18263 ft 320 kts 310°
2026-04-22 21:56 38.14743 -27.69754 17782 ft 316 kts 311°
2026-04-22 21:57 38.16327 -27.71652 17326 ft 311 kts 310°
2026-04-22 21:57 38.17876 -27.73540 16896 ft 306 kts 310°
2026-04-22 21:57 38.19377 -27.75412 16489 ft 300 kts 309°
2026-04-22 21:57 38.20840 -27.77264 16086 ft 294 kts 309°
2026-04-22 21:58 38.22270 -27.79085 15686 ft 289 kts 309°
2026-04-22 21:58 38.23674 -27.80886 15303 ft 288 kts 308°
2026-04-22 21:58 38.25143 -27.82807 14923 ft 306 kts 308°
2026-04-22 21:58 38.26624 -27.84731 14489 ft 303 kts 309°
2026-04-22 21:59 38.28093 -27.86630 14053 ft 300 kts 309°
2026-04-22 21:59 38.29549 -27.88510 13656 ft 298 kts 309°
2026-04-22 21:59 38.30998 -27.90383 13281 ft 296 kts 310°
2026-04-22 21:59 38.32423 -27.92224 12881 ft 289 kts 310°
2026-04-22 22:00 38.33822 -27.94023 12495 ft 282 kts 310°
2026-04-22 22:00 38.35184 -27.95781 12117 ft 276 kts 309°
2026-04-22 22:00 38.36507 -27.97518 11740 ft 271 kts 309°
2026-04-22 22:00 38.37801 -27.99221 11370 ft 266 kts 309°
2026-04-22 22:01 38.38988 -28.00780 11142 ft 257 kts 309°
2026-04-22 22:01 38.40208 -28.02377 10951 ft 247 kts 309°
2026-04-22 22:01 38.41410 -28.03946 10425 ft 250 kts 308°
2026-04-22 22:01 38.42632 -28.05541 10143 ft 244 kts 309°
2026-04-22 22:02 38.43800 -28.07053 9938 ft 236 kts 309°
2026-04-22 22:02 38.44932 -28.08507 9758 ft 228 kts 308°
2026-04-22 22:02 38.46096 -28.10027 9614 ft 249 kts 308°
2026-04-22 22:02 38.47302 -28.11604 9225 ft 250 kts 309°
2026-04-22 22:03 38.48499 -28.13156 8670 ft 254 kts 309°
2026-04-22 22:03 38.49699 -28.14704 8303 ft 251 kts 309°
2026-04-22 22:03 38.50910 -28.16266 8010 ft 244 kts 309°
2026-04-22 22:03 38.52078 -28.17797 7731 ft 238 kts 309°
2026-04-22 22:04 38.53214 -28.19292 7466 ft 232 kts 308°
2026-04-22 22:04 38.54322 -28.20744 7210 ft 226 kts 308°
2026-04-22 22:04 38.55409 -28.22165 6948 ft 221 kts 308°
2026-04-22 22:04 38.56501 -28.23594 6671 ft 230 kts 308°
2026-04-22 22:05 38.57615 -28.25059 6381 ft 229 kts 308°
2026-04-22 22:05 38.58738 -28.26535 6117 ft 228 kts 308°
2026-04-22 22:05 38.59843 -28.27987 5867 ft 228 kts 308°
2026-04-22 22:05 38.60949 -28.29436 5604 ft 228 kts 308°
2026-04-22 22:06 38.62048 -28.30873 5395 ft 222 kts 308°
2026-04-22 22:06 38.63102 -28.32236 5309 ft 210 kts 308°
2026-04-22 22:06 38.63998 -28.33630 5212 ft 200 kts 296°
2026-04-22 22:06 38.64463 -28.35230 5172 ft 212 kts 280°
2026-04-22 22:07 38.64514 -28.37118 5052 ft 216 kts 265°
2026-04-22 22:07 38.64095 -28.38962 4632 ft 217 kts 250°
2026-04-22 22:07 38.63399 -28.40669 4250 ft 215 kts 245°
2026-04-22 22:07 38.62638 -28.42292 3928 ft 211 kts 243°
2026-04-22 22:08 38.61876 -28.43864 3637 ft 206 kts 243°
2026-04-22 22:08 38.61092 -28.45407 3334 ft 203 kts 240°
2026-04-22 22:08 38.60305 -28.46763 3065 ft 182 kts 238°
2026-04-22 22:08 38.59575 -28.47958 2925 ft 155 kts 237°
2026-04-22 22:09 38.58879 -28.48947 2851 ft 153 kts 234°
2026-04-22 22:09 38.58149 -28.49963 2850 ft 157 kts 234°
2026-04-22 22:09 38.57418 -28.50979 2770 ft 154 kts 234°
2026-04-22 22:09 38.56690 -28.51987 2697 ft 155 kts 234°
2026-04-22 22:10 38.55965 -28.52994 2615 ft 153 kts 234°
2026-04-22 22:10 38.55250 -28.53985 2538 ft 152 kts 234°
2026-04-22 22:10 38.54530 -28.54988 2466 ft 154 kts 234°
2026-04-22 22:10 38.53852 -28.56029 2371 ft 151 kts 243°
2026-04-22 22:11 38.53416 -28.57232 2256 ft 149 kts 251°
2026-04-22 22:11 38.53029 -28.58480 2057 ft 154 kts 252°
2026-04-22 22:11 38.52631 -28.59757 1821 ft 152 kts 251°
2026-04-22 22:11 38.52248 -28.60999 1636 ft 145 kts 252°
2026-04-22 22:12 38.52072 -28.62231 1522 ft 139 kts 268°
2026-04-22 22:12 38.52033 -28.63487 1256 ft 141 kts 270°
2026-04-22 22:12 38.51970 -28.64715 1225 ft 131 kts 270°
2026-04-22 22:12 38.51972 -28.65803 1250 ft 117 kts 274°
2026-04-22 22:13 38.51998 -28.66821 925 ft 113 kts 274°
2026-04-22 22:13 38.52002 -28.67866 707 ft 121 kts 271°
2026-04-22 22:13 38.51995 -28.68931 524 ft 115 kts 272°
2026-04-22 22:13 38.51991 -28.69951 304 ft 115 kts 271°
2026-04-22 22:14 38.51989 -28.70945 133 ft 106 kts 275°
2026-04-22 22:14 38.51990 -28.71611 128 ft 23 kts 270°
2026-04-22 22:14 38.51990 -28.71634 128 ft 1 kts 275°
2026-04-22 22:14 38.51994 -28.71640 128 ft 1 kts 308°
2026-04-22 22:15 38.51998 -28.71642 128 ft 1 kts 334°
2026-04-22 22:15 38.52044 -28.71644 128 ft 12 kts 360°
2026-04-22 22:15 38.52111 -28.71612 128 ft 8 kts 85°
2026-04-22 22:15 38.52112 -28.71537 128 ft 7 kts 87°
2026-04-22 22:16 38.52112 -28.71527 128 ft 0 kts 91°